CST,Max TemperatureF,Mean TemperatureF,Min TemperatureF,Max Dew PointF,MeanDew PointF,Min DewpointF,Max Humidity, Mean Humidity, Min Humidity, Max Sea Level PressureIn, Mean Sea Level PressureIn, Min Sea Level PressureIn, Max VisibilityMiles, Mean VisibilityMiles, Min VisibilityMiles, Max Wind SpeedMPH, Mean Wind SpeedMPH, Max Gust SpeedMPH,PrecipitationIn, CloudCover, Events, WindDirDegrees
2013-2-1,51,33,14,27,20,8,92,66,39,30.32,30.15,29.97,10,10,10,17,6,22,T,6,,273
2013-2-2,53,37,20,28,22,17,96,61,26,30.32,30.24,30.13,10,10,10,38,13,47,0.00,1,,307
2013-2-3,53,34,15,25,20,12,92,60,28,30.30,30.08,29.88,10,10,10,21,6,26,0.00,0,,266
2013-2-4,56,38,19,26,21,17,91,57,22,30.02,29.92,29.82,10,10,10,17,7,22,0.00,1,,287
2013-2-5,55,37,19,27,22,17,88,58,28,30.09,30.00,29.89,10,10,10,14,6,18,0.00,1,,289
2013-2-6,58,46,34,28,26,24,64,46,28,29.99,29.86,29.76,10,10,10,21,8,25,0.00,3,,236
2013-2-7,55,37,19,29,20,12,92,56,20,30.21,30.13,30.02,10,10,10,20,7,26,0.00,0,,326
2013-2-8,55,37,19,26,22,14,91,62,32,30.20,30.03,29.86,10,10,7,30,14,41,0.00,0,,139
2013-2-9,51,36,21,39,29,19,93,63,32,29.84,29.63,29.36,10,9,4,21,12,28,0.06,4,Rain,125
2013-2-10,40,32,24,37,24,16,92,80,68,30.07,29.56,29.26,10,4,0,40,25,51,0.41,7,Fog-Rain-Snow,326
2013-2-11,31,22,12,18,13,6,84,69,53,30.24,30.18,30.10,10,10,10,17,8,22,0.00,1,,297
2013-2-12,37,23,9,23,15,7,92,71,50,30.16,30.11,30.06,10,10,10,20,7,23,0.00,1,,298
2013-2-13,49,33,17,29,23,14,91,69,46,30.05,29.95,29.85,10,10,10,24,12,31,0.00,2,,295
2013-2-14,39,30,20,27,21,16,92,70,47,30.38,30.19,30.01,10,10,10,31,10,44,T,5,,311
2013-2-15,34,23,11,21,13,8,92,64,36,30.45,30.40,30.30,10,10,9,24,8,30,T,3,Snow,305
2013-2-16,56,35,14,28,22,11,92,62,32,30.35,30.09,29.97,10,10,10,25,9,33,0.00,3,,280
2013-2-17,57,37,17,27,22,16,92,58,23,29.96,29.75,29.59,10,10,10,28,6,36,0.00,0,,314
2013-2-18,42,31,19,26,19,13,88,61,34,30.21,29.94,29.66,10,10,10,36,20,45,0.00,1,,332
2013-2-19,37,25,12,14,9,0,84,61,38,30.35,30.26,30.19,10,10,10,18,9,24,0.00,0,,57
2013-2-20,23,17,11,18,12,0,92,70,47,30.22,30.04,29.92,10,5,0,23,16,29,0.20,7,Fog-Snow,112
2013-2-21,18,16,13,14,12,9,84,82,80,30.06,29.95,29.86,10,2,0,21,12,25,0.37,8,Fog-Snow,69
2013-2-22,27,13,-2,16,6,-6,95,79,62,30.12,30.04,29.91,10,8,2,12,5,14,T,2,,299
2013-2-23,35,15,-5,22,4,-9,96,79,61,30.04,29.86,29.74,10,4,0,12,3,14,0.00,2,Fog,201
2013-2-24,34,24,14,28,19,9,92,77,61,30.13,29.91,29.76,10,5,0,24,7,30,T,8,,8
2013-2-25,38,25,11,28,22,9,92,76,59,30.15,30.06,29.88,10,10,7,17,6,22,T,3,,344
2013-2-26,39,22,5,24,12,2,92,70,48,30.06,29.93,29.83,10,7,0,12,4,13,0.00,2,Fog,328
2013-2-27,33,28,22,27,22,19,88,76,63,30.27,30.18,29.98,10,10,10,30,14,40,0.00,5,,331
2013-2-28,41,29,16,26,21,13,92,71,50,30.33,30.27,30.19,10,10,10,10,4,13,0.00,2,,326